Greenville Downtown, SC

5:29 PM EDT on May 23, 2017 (GMT -0400)
Greenville Downtown

Weather History for KGMU - November, 2012

Change the Weather History Date:

Monday, November 5, 2012

  Actual Average Record
Temperature  
Mean Temperature 52 °F -  
Max Temperature 61 °F 63 °F 79 °F (2003)
Min Temperature 44 °F 45 °F 34 °F (2006)
Degree Days  
Heating Degree Days 12    
Growing Degree Days 2 (Base 50)    
Moisture  
Dew Point 34 °F    
Average Humidity 50    
Maximum Humidity 71    
Minimum Humidity 31    
Precipitation  
Precipitation 0.00 in - - ()
Sea Level Pressure  
Sea Level Pressure 30.04 in    
Wind  
Wind Speed 6 mph (NE)    
Max Wind Speed 10 mph    
Max Gust Speed -    
Visibility 10 miles    
Events      
Averages and records for this station are not official NWS values.
T = Trace of Precipitation, MM = Missing Value Source: NWS Daily Summary

Daily Weather History Graph

Daily Weather History Graph

Search for Another Location

Airport or City:

Trip Planner

Search our weather history database for the weather conditions in past years. The results will help you decide how hot, cold, wet, or windy it might be!

Date:

Astronomy

Nov. 05, 2012 Rise Set
Actual Time 6:54 AM EST 5:31 PM EST
Civil Twilight 6:28 AM EST 5:57 PM EST
Nautical Twilight 5:57 AM EST 6:27 PM EST
Astronomical Twilight 5:28 AM EST 6:57 PM EST
Moon 11:07 PM EST (11/5) 12:12 PM EST (11/5)
Length of Visible Light 11h 29m
Length of Day
10h 36m
Waning Gibbous, 63% of the Moon is Illuminated
Nov 5
Waning Gibbous
Nov 6
Last Quarter
Nov 13
New
Nov 20
First Quarter
Nov 28
Full

Hourly Weather History & Observations

Time (EST) Temp. Windchill Dew Point Humidity Pressure Visibility Wind Dir Wind Speed Gust Speed Precip Events Conditions
12:53 AM 53.1 °F - 41.0 °F 64% 29.99 in 10.0 mi NE 5.8 mph - N/A   Mostly Cloudy
1:53 AM 50.0 °F - 39.0 °F 66% 30.01 in 10.0 mi North 10.4 mph - N/A   Mostly Cloudy
2:53 AM 48.9 °F - 37.0 °F 64% 30.02 in 10.0 mi North 4.6 mph - N/A   Scattered Clouds
3:53 AM 48.9 °F - 36.0 °F 61% 30.03 in 10.0 mi North 9.2 mph - N/A   Clear
4:53 AM 46.0 °F 42.5 °F 35.1 °F 66% 30.04 in 10.0 mi North 6.9 mph - N/A   Clear
5:53 AM 44.1 °F 40.1 °F 35.1 °F 71% 30.06 in 10.0 mi North 6.9 mph - N/A   Clear
6:53 AM 44.1 °F 40.1 °F 35.1 °F 71% 30.06 in 10.0 mi North 6.9 mph - N/A   Clear
7:53 AM 46.9 °F - 35.1 °F 63% 30.09 in 10.0 mi East 5.8 mph - N/A   Clear
8:53 AM 50.0 °F - 36.0 °F 59% 30.09 in 10.0 mi East 5.8 mph - N/A   Clear
9:53 AM 53.1 °F - 35.1 °F 50% 30.08 in 10.0 mi NE 5.8 mph - N/A   Clear
10:53 AM 57.0 °F - 32.0 °F 39% 30.08 in 10.0 mi NNW 4.6 mph - N/A   Clear
11:53 AM 57.9 °F - 30.9 °F 36% 30.06 in 10.0 mi Variable 5.8 mph - N/A   Clear
12:53 PM 60.1 °F - 30.0 °F 32% 30.03 in 10.0 mi North 3.5 mph - N/A   Clear
1:53 PM 61.0 °F - 30.0 °F 31% 30.01 in 10.0 mi SW 6.9 mph - N/A   Clear
2:53 PM 61.0 °F - 30.0 °F 31% 29.99 in 10.0 mi Calm Calm - N/A   Clear
3:53 PM 61.0 °F - 30.9 °F 32% 29.99 in 10.0 mi Calm Calm - N/A   Clear
4:53 PM 57.9 °F - 32.0 °F 37% 30.00 in 10.0 mi SSE 8.1 mph - N/A   Clear
5:53 PM 55.9 °F - 33.1 °F 42% 30.01 in 10.0 mi ESE 4.6 mph - N/A   Clear
6:53 PM 55.0 °F - 33.1 °F 43% 30.02 in 10.0 mi ESE 4.6 mph - N/A   Clear
7:53 PM 54.0 °F - 34.0 °F 47% 30.03 in 10.0 mi East 5.8 mph - N/A   Clear
8:53 PM 51.1 °F - 33.1 °F 50% 30.04 in 10.0 mi East 5.8 mph - N/A   Clear
9:53 PM 51.1 °F - 33.1 °F 50% 30.05 in 10.0 mi East 5.8 mph - N/A   Mostly Cloudy
10:53 PM 50.0 °F - 33.1 °F 52% 30.04 in 10.0 mi ENE 4.6 mph - N/A   Overcast
11:53 PM 48.9 °F - 33.1 °F 54% 30.04 in 10.0 mi NE 8.1 mph - N/A   Overcast